Weather History for Fort Bragg, NC

Change the Weather History Date:

Thursday, November 1, 2012

  Actual Average Record
Temperature  
Mean Temperature 48 °F -  
Max Temperature 61 °F 66 °F 84 °F (2004)
Min Temperature 36 °F 46 °F 36 °F (2008)
Degree Days  
Heating Degree Days 17    
Moisture  
Dew Point 37 °F    
Average Humidity 71    
Maximum Humidity 96    
Minimum Humidity 39    
Precipitation  
Precipitation 0.00 in - - ()
Sea Level Pressure  
Sea Level Pressure 29.81 in    
Wind  
Wind Speed 3 mph (WNW)    
Max Wind Speed 17 mph    
Max Gust Speed 23 mph    
Visibility 10 miles    
Events      
Averages and records for this station are not official NWS values.
T = Trace of Precipitation, MM = Missing Value Source: NWS Daily Summary

Daily Weather History Graph

Daily Weather History Graph

Search for Another Location

Airport:

Trip Planner

Search our weather history database for the weather conditions in past years. The results will help you decide how hot, cold, wet, or windy it might be!

Date:

Astronomy

Nov. 01, 2012 Rise Set
Actual Time 7:37 AM EDT 6:20 PM EDT
Civil Twilight 7:11 AM EDT 6:46 PM EDT
Nautical Twilight 6:41 AM EDT 7:16 PM EDT
Astronomical Twilight 6:11 AM EDT 7:46 PM EDT
Moon 8:21 PM EDT (11/1) 10:03 AM EDT (11/1)
Length of Visible Light 11h 35m
Length of Day
10h 43m
Waning Gibbous, 93% of the Moon is Illuminated
Nov 1
Waning Gibbous
Nov 6
Last Quarter
Nov 13
New
Nov 20
First Quarter
Nov 28
Full

Hourly Weather History & Observations

Time (EDT) Temp. Windchill Dew Point Humidity Pressure Visibility Wind Dir Wind Speed Gust Speed Precip Events Conditions
12:55 AM 43.3 °F - 39.4 °F 86% 29.79 in 10.0 mi Calm Calm - N/A   Clear
1:55 AM 40.5 °F - 38.5 °F 93% 29.79 in 10.0 mi Calm Calm - N/A   Clear
2:55 AM 38.7 °F - 36.1 °F 91% 29.78 in 10.0 mi Calm Calm - N/A   Clear
3:55 AM 37.6 °F - 35.6 °F 93% 29.79 in 10.0 mi Calm Calm - N/A   Clear
4:55 AM 37.9 °F - 36.7 °F 95% 29.78 in 10.0 mi Calm Calm - N/A   Mostly Cloudy
5:55 AM 37.8 °F - 35.2 °F 91% 29.79 in 10.0 mi Calm Calm - N/A   Clear
6:55 AM 37.8 °F - 34.3 °F 87% 29.80 in 10.0 mi Calm Calm - N/A   Clear
7:55 AM 36.3 °F - 35.2 °F 96% 29.81 in 10.0 mi Calm Calm - N/A   Partly Cloudy
8:55 AM 40.1 °F - 38.8 °F 95% 29.82 in 10.0 mi Calm Calm - N/A   Clear
9:55 AM 52.3 °F - 38.1 °F 58% 29.83 in 10.0 mi NW 8.1 mph - N/A   Clear
10:55 AM 55.2 °F - 34.7 °F 46% 29.83 in 10.0 mi WNW 12.7 mph - N/A   Clear
11:55 AM 57.4 °F - 35.4 °F 44% 29.82 in 10.0 mi WNW 8.1 mph 17.3 mph N/A   Clear
12:55 PM 59.4 °F - 35.1 °F 40% 29.79 in 10.0 mi WNW 10.4 mph 19.6 mph N/A   Partly Cloudy
1:55 PM 60.6 °F - 36.0 °F 40% 29.76 in 10.0 mi West 10.4 mph - N/A   Scattered Clouds
2:55 PM 60.1 °F - 35.4 °F 40% 29.75 in 10.0 mi West 13.8 mph 23.0 mph N/A   Mostly Cloudy
3:55 PM 60.1 °F - 34.7 °F 39% 29.77 in 10.0 mi WNW 17.3 mph - N/A   Clear
4:55 PM 58.3 °F - 34.9 °F 41% 29.78 in 10.0 mi WNW 8.1 mph - N/A   Partly Cloudy
5:55 PM 56.8 °F - 35.8 °F 45% 29.79 in 10.0 mi NW 5.8 mph - N/A   Mostly Cloudy
6:55 PM 52.7 °F - 36.0 °F 53% 29.81 in 10.0 mi West 3.5 mph - N/A   Clear
7:55 PM 45.9 °F - 40.8 °F 83% 29.83 in 10.0 mi Calm Calm - N/A   Clear
8:55 PM 43.7 °F - 40.8 °F 90% 29.84 in 10.0 mi Calm Calm - N/A   Clear
9:55 PM 41.7 °F 38.8 °F 39.6 °F 92% 29.85 in 8.0 mi NNW 4.6 mph - N/A   Clear
10:55 PM 42.4 °F 40.7 °F 36.1 °F 78% 29.86 in 10.0 mi SW 3.5 mph - N/A   Clear
11:55 PM 39.7 °F - 38.7 °F 96% 29.87 in 10.0 mi Calm Calm - N/A   Clear